Location: Earls Croome
(52.0667°N, 2.2000°W)
Time: 01:54:17
(UTC+00:00)

COSMOS 2455 - Pass Details

Date: 29 February 2020
Orbit: 901 x 909 km, 67.1° (Epoch: 08 April)

Event Time Altitude Azimuth Distance (km) Brightness Sun altitude
Exits shadow 03:52:14 10° 327° (NNW) 2,589 5.1 -28.4°
Maximum altitude 03:57:57 44° 39° (NE) 1,245 3.9 -27.6°
Drops below altitude 10° 04:03:41 10° 111° (ESE) 2,593 5.8 -26.8°
Sets 04:06:19 0° 118° (ESE) 3,532 6.5 -26.5°
